This is the latest recevied weather packets stored in our database for station/object WE1C. If no packets are shown the sender has not sent any weather packets the latest 10 day(s).
| Time | Temp. | Humidity | Pressure | Rain* | Wind** | Luminosity | Snow |
|---|---|---|---|---|---|---|---|
| 1777910571 | 18.33° C | 35% | 1038.2 hPa | 0 mm | - | 786 W/m² | - |
| 1777910268 | 18.33° C | 35% | 1038.4 hPa | 0 mm | - | 774 W/m² | - |
| 1777909965 | 17.78° C | 37% | 1038.5 hPa | 0 mm | - | 765 W/m² | - |
| 1777909662 | 17.78° C | 36% | 1038.4 hPa | 0 mm | - | 793 W/m² | - |
| 1777909359 | 17.78° C | 38% | 1038.3 hPa | 0 mm | - | 816 W/m² | - |
| 1777909057 | 17.78° C | 38% | 1038.5 hPa | 0 mm | - | 798 W/m² | - |
| 1777908754 | 17.78° C | 38% | 1038.7 hPa | 0 mm | - | 788 W/m² | - |
| 1777908451 | 17.22° C | 37% | 1038.7 hPa | 0 mm | - | 825 W/m² | - |
| 1777908148 | 17.78° C | 37% | 1038.8 hPa | 0 mm | - | 839 W/m² | - |
| 1777907844 | 17.22° C | 39% | 1038.8 hPa | 0 mm | - | 836 W/m² | - |
| 1777907540 | 17.22° C | 41% | 1039 hPa | 0 mm | - | 773 W/m² | - |
| 1777907236 | 17.78° C | 39% | 1039.1 hPa | 0 mm | - | 790 W/m² | - |
| 1777906933 | 17.78° C | 37% | 1038.9 hPa | 0 mm | - | 779 W/m² | - |
| 1777906631 | 17.22° C | 41% | 1038.9 hPa | 0 mm | - | 649 W/m² | - |
| 1777906326 | 16.67° C | 38% | 1039.1 hPa | 0 mm | - | 886 W/m² | - |
| 1777906023 | 17.22° C | 38% | 1039.3 hPa | 0 mm | - | 885 W/m² | - |
| 1777905720 | 16.67° C | 39% | 1039.2 hPa | 0 mm | - | 851 W/m² | - |
| 1777905416 | 16.11° C | 39% | 1039.2 hPa | 0 mm | - | 761 W/m² | - |
| 1777905115 | 17.22° C | 37% | 1039.3 hPa | 0 mm | - | 657 W/m² | - |
| 1777904811 | 16.67° C | 40% | 1039 hPa | 0 mm | - | 853 W/m² | - |
| 1777904508 | 16.67° C | 40% | 1039.3 hPa | 0 mm | - | 710 W/m² | - |
| 1777904205 | 16.11° C | 40% | 1039.2 hPa | 0 mm | - | 676 W/m² | - |
| 1777903902 | 16.67° C | 39% | 1039.1 hPa | 0 mm | - | 734 W/m² | - |
| 1777903599 | 16.11° C | 41% | 1039.1 hPa | 0 mm | - | 773 W/m² | - |
| 1777903294 | 16.11° C | 40% | 1039.2 hPa | 0 mm | - | 724 W/m² | - |
* Rain latest hour (hover to see other rain measurements)
** Current wind speed in m/s (hover to see current wind gust speed)